STARLINK-35269, 65593

Orbit data source: Space-Track

STARLINK-35269, 65593 is a payload satellite owned by SpaceX/Seattle (US) in SSO that was launched on Sat, 13 Sep 2025 UTC via an FALCON 9 launch vehicle from the Air Force Eastern Test Range (AFETR). Payload-class satellites include a variety of spacecraft equipped with specific instruments for various scientific and technological missions. These include communications satellites like Starlink; space stations such as the ISS; scientific satellites like the Hubble; Earth observation satellites from companies like Planet Labs, Umbra, and HawkEye 360; GPS; miniature CubeSats for education and research; and military/defense satellites.

Loading next visibility...
Identifier
65593, 2025-207B
Orbit
SSO
Country
Flag of USUS
Related business
Manufacturer
SpaceX/Seattle
Mission
Operational Commercial Communications
Bus & Motor
STARLINK V2MO, Unknown motor
Mass
575 kg wet, ~530 kg dry
Launch date (UTC)
2025-09-13 (9 months ago)
Launch vehicle
FALCON 9
Launch site
Air Force Eastern Test Range (AFETR)
Object type
Payload
Rocket body
Debris
Shape & HBR
Box + 2 Pan, 17.7 m
Radar Cross Section
36.964 m², Large (>1 m²)

Expand to show TLE details & history
Last TLE update: 6 hours ago

TLE from 6 hours ago
0 STARLINK-35269
1 65593U 25207B   26166.92321206  .00004785  00000-0  33529-3 0  9999
2 65593  97.3543 234.5653 0001835 111.2170 248.9254 15.05659163 43034
Epoch: 2026-06-15T22:09Z
TLE epoch observation values (Epoch: 2026-06-15T22:09:25.521Z)
Latitude
-0.00002°
Longitude
-1.99367°
Altitude
553.013 km
Speed
7.585 km/s
True Right ascension
15h 38m 15s
True Declination
0° 00' 00"
Sunlit
Object was in full shadow at epoch
Visualization orbit readout
Latitude
Unknown
Longitude
Unknown
Altitude
Unknown
Speed
Unknown
Apparent Right ascension
Unknown
Apparent Declination
Unknown
Sunlit
N/A
Visualization observer readout
Local Sidereal Time
14:42:41
Azimuth
Unknown
Elevation
Unknown
Doppler factor
Unknown
Orbital elements
Apogee altitude
547.737 km
Perigee altitude
545.195 km
Semi-major axis
6,924.603 km
Eccentricity
0.00018
Inclination
97.3543°
RAAN
234.5653°
Arg. of periapsis
111.217°
True anomaly
248.90578°
Mean anomaly
248.9254°
Eccentric anomaly
248.91559°
Mean motion
3.76661 °/min
Orbital period
95.58 mins
BSTAR
0.00033529
Loading maneuver chart data...
Computing Atmospheric mass density...
Loading historical data...
Loading historical data...
Loading historical data...
Loading historical data...
Loading historical data...
Loading historical data...
Loading historical data...

Documentation

Showing up to 5 results
|